This is the latest recevied weather packets stored in our database for station/object WD4HMR. If no packets are shown the sender has not sent any weather packets the latest 10 day(s).
| Time | Temp. | Humidity | Pressure | Rain* | Wind** | Luminosity | Snow |
|---|---|---|---|---|---|---|---|
| 1777563699 | 17.22° C | 77% | 1015.3 hPa | 0 mm | - | - | - |
| 1777563278 | 17.22° C | 77% | 1015.3 hPa | 0 mm | - | - | - |
| 1777562858 | 16.67° C | 79% | 1015.2 hPa | 0 mm | - | - | - |
| 1777562439 | 16.67° C | 81% | 1015.1 hPa | 0 mm | - | - | - |
| 1777562018 | 16.67° C | 79% | 1015 hPa | 0 mm | - | - | - |
| 1777561652 | 16.67° C | 82% | 1014.9 hPa | 0 mm | - | - | - |
| 1777561472 | 16.67° C | 83% | 1014.9 hPa | 0 mm | - | - | - |
| 1777561171 | 16.67° C | 84% | 1014.9 hPa | 0 mm | - | - | - |
| 1777561109 | 16.11° C | 83% | 1014.9 hPa | 0 mm | - | - | - |
| 1777560692 | 16.11° C | 86% | 1014.8 hPa | 0 mm | - | - | - |
| 1777560690 | 16.11° C | 86% | 1014.8 hPa | 0 mm | - | - | - |
| 1777560269 | 16.11° C | 84% | 1014.8 hPa | 0 mm | - | - | - |
| 1777560212 | 16.11° C | 83% | 1014.9 hPa | 0 mm | - | - | - |
| 1777559850 | 15.56° C | 86% | 1014.6 hPa | 0 mm | - | - | - |
| 1777559732 | 15.56° C | 85% | 1014.7 hPa | 0 mm | - | - | - |
| 1777559429 | 15° C | 87% | 1014.6 hPa | 0 mm | - | - | - |
| 1777559252 | 15° C | 87% | 1014.7 hPa | 0 mm | - | - | - |
| 1777559009 | 15° C | 87% | 1014.7 hPa | 0 mm | - | - | - |
| 1777558772 | 15° C | 89% | 1014.5 hPa | 0 mm | - | - | - |
| 1777558588 | 14.44° C | 90% | 1014.4 hPa | 0 mm | - | - | - |
| 1777558291 | 14.44° C | 91% | 1014.1 hPa | 0 mm | - | - | - |
| 1777558168 | 14.44° C | 90% | 1014.1 hPa | 0 mm | - | - | - |
| 1777557812 | 14.44° C | 92% | 1013.9 hPa | 0 mm | - | - | - |
| 1777557749 | 14.44° C | 92% | 1014 hPa | 0 mm | - | - | - |
| 1777557332 | 14.44° C | 92% | 1013.6 hPa | 0 mm | - | - | - |
* Rain latest hour (hover to see other rain measurements)
** Current wind speed in m/s (hover to see current wind gust speed)